Regional Weather Roundup
Issued by NWS

Home | Current Version | Previous Version | Graphics & Text | Print | Product List | Glossary On
Versions: 1 2 3 4 5 6 7 8 9 10 11 12 13 14 15 16 17 18 19 20 21 22 23 24 25 26 27 28 29 30 31 32 33 34 35 36 37 38 39 40 41 42 43 44 45 46 47 48 49 50
000
ASUS43 KLSX 031007
RWRMO

WEATHER SUMMARY FOR MISSOURI
NATIONAL WEATHER SERVICE SPRINGFIELD MO
400 AM CST SAT DEC 03 2016

NOTE: "FAIR" INDICATES FEW OR NO CLOUDS BELOW 12,000 FEET WITH NO
       SIGNIFICANT WEATHER AND/OR OBSTRUCTIONS TO VISIBILITY.
       CURRENT SKY AND/OR WEATHER CONDITIONS ARE NOT AVAILABLE FOR
       CHILLICOTHE AND FARMINGTON.

MOZ001>031-035>038-043-044-053-054-031100-
...NORTHERN AND WESTERN MISSOURI...

CITY           SKY/WX    TMP DP  RH WIND       PRES   REMARKS
KANSAS CTY INT PTCLDY    28  24  85 NE6       30.32F WCI  22
KANSAS C DTWN  PTCLDY    33  29  85 CALM      30.33
LEE`S SUMMIT   CLOUDY    33  28  81 NE7       30.31F WCI  27
ST JOSEPH      CLEAR     22  21  96 CALM      30.34F
CHILLICOTHE      N/A     27  25  92 CALM      30.36F
KIRKSVILLE     PTCLDY    25  24  96 N3        30.35F

$$
MOZ066>068-077>081-088>096-101>105-031100-
...SOUTHWEST MISSOURI...

CITY           SKY/WX    TMP DP  RH WIND       PRES   REMARKS
SPRINGFIELD    PTCLDY    44  26  49 E6        30.27F
JOPLIN         CLOUDY    45  28  51 E8        30.26F
BRANSON        CLOUDY    43  32  65 SE5       30.28S

$$
MOZ032>034-039>042-045>050-055>058-069>072-031100-
...CENTRAL MISSOURI...

CITY           SKY/WX    TMP DP  RH WIND       PRES   REMARKS
COLUMBIA       PTCLDY    30  26  85 E5        30.33  WCI  25
JEFFERSON CITY CLOUDY    28  25  88 CALM      30.34F
ROLLA          PTCLDY    34  28  79 E5        30.30F WCI  30
SEDALIA        PTCLDY    31  25  78 NE5       30.33F WCI  26
WHITEMAN AFB   CLOUDY    29  29  98 CALM      30.31F
WARRENSBURG    PTCLDY    30  27  86 N6        30.32F WCI  24
OSAGE BEACH    CLOUDY    34  27  75 NE3       30.32F

$$
MOZ051-052-059>065-031100-
...EAST CENTRAL MISSOURI...

CITY           SKY/WX    TMP DP  RH WIND       PRES   REMARKS
ST LOUIS INTL  CLOUDY    33  27  78 CALM      30.35F
SPIRIT OF STL  PTCLDY    27  26  96 CALM      30.36
ST CHARLES     FOG       28  27  96 CALM      30.36F VSB 1/2

$$
MOZ072>076-082>087-097>100-106>115-031100-
...SOUTH CENTRAL AND SOUTHEAST MISSOURI...

CITY           SKY/WX    TMP DP  RH WIND       PRES   REMARKS
CAPE GIRARDEAU CLOUDY    34  30  85 E3        30.36F
FARMINGTON     CLOUDY    29  26  89 CALM      30.34F
POPLAR BLUFF   CLOUDY    39  33  79 NE6       30.34F
WEST PLAINS    PTCLDY    40  29  64 E5        30.31F

$$



USA.gov is the U.S. government's official web portal to all federal, state and local government web resources and services.